Tracking 30743 objects as of 21-Jun-2025
HD Live streaming from Space Station
objects crossing your sky now

NOAA 16 DEB

Track NOAA 16 DEB now!
10-day predictions


NORAD ID: 41081
Int'l Code: 2000-055AQ
Perigee: 735.1 km
Apogee: 932.3 km
Inclination: 99.2 °
Period: 101.4 minutes
Semi major axis: 7204 km
RCS: Unknown
Launch date: September 21, 2000
Source: United States (US)
Launch site: AIR FORCE WESTERN TEST RANGE (AFWTR)

Note: This is SATELLITE DEBRIS
Your satellite tracking list
Your tracking list is empty




NASA's NSSDC Master Catalog

Two Line Element Set (TLE):
1 41081U 00055AQ  25171.52972962  .00000804  00000-0  36766-3 0  9995
2 41081  99.2396  21.5566 0136907 257.9796 100.6007 14.19642186493877
Source of the keplerian elements: AFSPC